TimePST,TemperatureF,Dew PointF,Humidity,Sea Level PressureIn,VisibilityMPH,Wind Direction,Wind SpeedMPH,Gust SpeedMPH,PrecipitationIn,Events,Conditions,WindDirDegrees,DateUTC
12:53 AM,57.0,5.0,12,30.08,10.0,Calm,Calm,-,N/A,,Clear,0,2013-11-07 08:53:00
1:53 AM,66.0,1.0,8,30.06,10.0,ENE,9.2,-,N/A,,Clear,60,2013-11-07 09:53:00
2:53 AM,68.0,-0.9,6,30.06,10.0,ENE,11.5,-,N/A,,Clear,60,2013-11-07 10:53:00
3:53 AM,64.9,1.0,8,30.06,10.0,ENE,6.9,-,N/A,,Clear,60,2013-11-07 11:53:00
4:53 AM,48.0,14.0,26,30.08,10.0,Calm,Calm,-,N/A,,Clear,0,2013-11-07 12:53:00
5:53 AM,45.0,17.1,33,30.09,10.0,Calm,Calm,-,N/A,,Clear,0,2013-11-07 13:53:00
6:53 AM,51.1,19.9,29,30.10,10.0,Calm,Calm,-,N/A,,Clear,0,2013-11-07 14:53:00
7:53 AM,73.9,9.0,8,30.09,10.0,Variable,3.5,-,N/A,,Clear,0,2013-11-07 15:53:00
8:53 AM,79.0,3.9,6,30.08,10.0,East,10.4,-,N/A,,Clear,80,2013-11-07 16:53:00
9:53 AM,80.1,5.0,6,30.08,10.0,Variable,3.5,-,N/A,,Clear,0,2013-11-07 17:53:00
10:53 AM,82.0,3.9,5,30.06,10.0,Variable,3.5,-,N/A,,Clear,0,2013-11-07 18:53:00
11:53 AM,82.9,6.1,5,30.03,10.0,Calm,Calm,-,N/A,,Clear,0,2013-11-07 19:53:00
12:53 PM,86.0,9.0,5,30.00,10.0,ENE,6.9,-,N/A,,Clear,60,2013-11-07 20:53:00
1:53 PM,81.0,19.0,10,29.99,10.0,West,12.7,-,0.00,,Clear,270,2013-11-07 21:53:00
2:53 PM,81.0,12.0,7,29.98,10.0,WNW,9.2,-,N/A,,Clear,300,2013-11-07 22:53:00
3:53 PM,75.9,12.9,9,29.99,10.0,West,10.4,-,N/A,,Clear,280,2013-11-07 23:53:00
4:53 PM,64.0,21.0,19,30.01,10.0,WNW,8.1,-,N/A,,Clear,290,2013-11-08 00:53:00
5:53 PM,62.1,19.0,19,30.03,10.0,Calm,Calm,-,N/A,,Clear,0,2013-11-08 01:53:00
6:53 PM,51.1,24.1,35,30.04,10.0,Calm,Calm,-,N/A,,Clear,0,2013-11-08 02:53:00
7:53 PM,53.1,25.0,34,30.02,10.0,Calm,Calm,-,N/A,,Clear,0,2013-11-08 03:53:00
8:53 PM,51.1,27.0,39,30.02,10.0,East,4.6,-,N/A,,Clear,90,2013-11-08 04:53:00
9:53 PM,50.0,28.0,43,30.01,10.0,Calm,Calm,-,N/A,,Clear,0,2013-11-08 05:53:00
10:53 PM,48.0,28.0,46,30.01,10.0,SE,3.5,-,N/A,,Clear,140,2013-11-08 06:53:00
11:53 PM,46.0,28.0,50,30.01,10.0,Calm,Calm,-,N/A,,Clear,0,2013-11-08 07:53:00